| time (UTC) | temp F | wind direction | speed MPH | gust MPH | rain 1hr in | rain 24hr in | rain mn in | humidity % | barometer mb |
| 20260510170755 | 54 | 341 | 9.0 | 11.0 | 0.00 | 0.00 | 0.00 | 39 | 1019.0 |
| 20260510170251 | 54 | 14 | 6.0 | 7.0 | 0.00 | 0.00 | 0.00 | 40 | 1019.0 |
| 20260510165746 | 53 | 18 | 3.0 | 5.0 | 0.00 | 0.00 | 0.00 | 40 | 1019.0 |
| 20260510165243 | 53 | 356 | 4.0 | 6.0 | 0.00 | 0.00 | 0.00 | 40 | 1019.2 |
| 20260510164740 | 53 | 342 | 8.0 | 9.0 | 0.00 | 0.00 | 0.00 | 43 | 1019.1 |
| 20260510164237 | 53 | 347 | 8.0 | 10.0 | 0.00 | 0.00 | 0.00 | 41 | 1019.4 |
| 20260510163732 | 53 | 6 | 5.0 | 8.0 | 0.00 | 0.00 | 0.00 | 43 | 1019.3 |
| 20260510163228 | 53 | 264 | 3.0 | 3.0 | 0.00 | 0.00 | 0.00 | 42 | 1019.3 |
| 20260510162727 | 53 | 22 | 8.0 | 9.0 | 0.00 | 0.00 | 0.00 | 43 | 1019.2 |
| 20260510162225 | 53 | 73 | 7.0 | 9.0 | 0.00 | 0.00 | 0.00 | 43 | 1019.2 |
| 20260510161721 | 52 | 53 | 4.0 | 6.0 | 0.00 | 0.00 | 0.00 | 45 | 1019.3 |
| 20260510161217 | 51 | 346 | 7.0 | 9.0 | 0.00 | 0.00 | 0.00 | 44 | 1019.3 |
| 20260510160714 | 51 | 305 | 5.0 | 7.0 | 0.00 | 0.00 | 0.00 | 46 | 1019.2 |
| 20260510160209 | 51 | 346 | 6.0 | 7.0 | 0.00 | 0.00 | 0.00 | 46 | 1019.2 |
| 20260510155706 | 51 | 322 | 7.0 | 8.0 | 0.00 | 0.00 | 0.00 | 47 | 1019.3 |
| 20260510155202 | 51 | 25 | 6.0 | 8.0 | 0.00 | 0.00 | 0.00 | 48 | 1019.2 |
| 20260510154657 | 51 | 19 | 8.0 | 9.0 | 0.00 | 0.00 | 0.00 | 47 | 1018.9 |
| 20260510154153 | 51 | 350 | 12.0 | 15.0 | 0.00 | 0.00 | 0.00 | 48 | 1018.9 |
| 20260510153648 | 51 | 326 | 4.0 | 5.0 | 0.00 | 0.00 | 0.00 | 50 | 1019.0 |
| 20260510153146 | 50 | 324 | 4.0 | 6.0 | 0.00 | 0.00 | 0.00 | 50 | 1018.9 |
| 20260510152642 | 51 | 7 | 10.0 | 13.0 | 0.00 | 0.00 | 0.00 | 49 | 1019.0 |
| 20260510152138 | 50 | 337 | 5.0 | 7.0 | 0.00 | 0.00 | 0.00 | 52 | 1019.0 |
| 20260510151635 | 50 | 355 | 4.0 | 5.0 | 0.00 | 0.00 | 0.00 | 53 | 1018.9 |
| 20260510151133 | 49 | 47 | 5.0 | 7.0 | 0.00 | 0.00 | 0.00 | 56 | 1018.9 |
| 20260510150628 | 49 | 353 | 5.0 | 6.0 | 0.00 | 0.00 | 0.00 | 55 | 1019.0 |
| 20260510150124 | 49 | 39 | 3.0 | 3.0 | 0.00 | 0.00 | 0.00 | 57 | 1019.0 |
| 20260510145620 | 49 | 349 | 5.0 | 5.0 | 0.00 | 0.00 | 0.00 | 56 | 1018.8 |
| 20260510145117 | 49 | 8 | 3.0 | 5.0 | 0.00 | 0.00 | 0.00 | 56 | 1018.9 |
| 20260510144613 | 48 | 21 | 4.0 | 6.0 | 0.00 | 0.00 | 0.00 | 57 | 1018.8 |
| 20260510144109 | 49 | 20 | 9.0 | 10.0 | 0.00 | 0.00 | 0.00 | 55 | 1018.8 |
| 20260510143605 | 48 | 22 | 5.0 | 7.0 | 0.00 | 0.00 | 0.00 | 56 | 1018.8 |
| 20260510143101 | 48 | 16 | 7.0 | 9.0 | 0.00 | 0.00 | 0.00 | 57 | 1018.8 |
| 20260510142558 | 49 | 44 | 5.0 | 8.0 | 0.00 | 0.00 | 0.00 | 56 | 1018.7 |
| 20260510142055 | 48 | 352 | 8.0 | 9.0 | 0.00 | 0.00 | 0.00 | 56 | 1018.6 |
| 20260510141552 | 47 | 22 | 6.0 | 8.0 | 0.00 | 0.00 | 0.00 | 57 | 1018.7 |
| 20260510141050 | 48 | 30 | 4.0 | 5.0 | 0.00 | 0.00 | 0.00 | 59 | 1018.5 |
| 20260510140546 | 48 | 27 | 3.0 | 5.0 | 0.00 | 0.00 | 0.00 | 58 | 1018.7 |
| 20260510140045 | 47 | 33 | 4.0 | 5.0 | 0.00 | 0.00 | 0.00 | 60 | 1018.7 |
| 20260510135541 | 48 | 25 | 3.0 | 5.0 | 0.00 | 0.00 | 0.00 | 59 | 1018.5 |
| 20260510135037 | 48 | 9 | 7.0 | 8.0 | 0.00 | 0.00 | 0.00 | 58 | 1018.6 |
| 20260510134535 | 47 | 18 | 5.0 | 7.0 | 0.00 | 0.00 | 0.00 | 60 | 1018.6 |
| 20260510134031 | 46 | 39 | 3.0 | 3.0 | 0.00 | 0.00 | 0.00 | 60 | 1018.5 |
| 20260510133527 | 47 | 21 | 6.0 | 8.0 | 0.00 | 0.00 | 0.00 | 61 | 1018.6 |
| 20260510133023 | 47 | 17 | 8.0 | 11.0 | 0.00 | 0.00 | 0.00 | 60 | 1018.5 |
| 20260510132521 | 46 | 33 | 6.0 | 7.0 | 0.00 | 0.00 | 0.00 | 60 | 1018.6 |
| 20260510132017 | 46 | 9 | 3.0 | 3.0 | 0.00 | 0.00 | 0.00 | 63 | 1018.4 |
| 20260510131515 | 46 | 37 | 1.0 | 2.0 | 0.00 | 0.00 | 0.00 | 65 | 1018.4 |
| 20260510131012 | 46 | 355 | 3.0 | 5.0 | 0.00 | 0.00 | 0.00 | 63 | 1018.5 |
| 20260510130508 | 46 | 40 | 1.0 | 2.0 | 0.00 | 0.00 | 0.00 | 67 | 1018.4 |
| 20260510130006 | 46 | 9 | 3.0 | 3.0 | 0.00 | 0.00 | 0.00 | 64 | 1018.1 |
| 20260510125502 | 46 | 344 | 1.0 | 2.0 | 0.00 | 0.00 | 0.00 | 66 | 1018.2 |
| 20260510124958 | 45 | 241 | 1.0 | 1.0 | 0.00 | 0.00 | 0.00 | 68 | 1018.2 |
| 20260510124454 | 45 | 251 | 1.0 | 1.0 | 0.00 | 0.00 | 0.00 | 67 | 1018.2 |
| 20260510123952 | 44 | 249 | 0.0 | 1.0 | 0.00 | 0.00 | 0.00 | 68 | 1018.3 |
| 20260510123447 | 44 | 218 | 0.0 | 0.0 | 0.00 | 0.00 | 0.00 | 70 | 1018.1 |
| 20260510122943 | 44 | 216 | 0.0 | 0.0 | 0.00 | 0.00 | 0.00 | 72 | 1018.1 |
| 20260510122439 | 43 | 216 | 0.0 | 0.0 | 0.00 | 0.00 | 0.00 | 70 | 1017.9 |
| 20260510121935 | 43 | 212 | 0.0 | 0.0 | 0.00 | 0.00 | 0.00 | 71 | 1017.9 |
| 20260510121433 | 42 | 210 | 0.0 | 0.0 | 0.00 | 0.00 | 0.00 | 70 | 1017.8 |
| 20260510120930 | 42 | 210 | 0.0 | 0.0 | 0.00 | 0.00 | 0.00 | 70 | 1017.8 |
| 20260510120427 | 41 | 210 | 0.0 | 0.0 | 0.00 | 0.00 | 0.00 | 72 | 1017.7 |
| 20260510115923 | 41 | 207 | 0.0 | 0.0 | 0.00 | 0.00 | 0.00 | 76 | 1017.7 |
| 20260510115420 | 41 | 207 | 0.0 | 0.0 | 0.00 | 0.00 | 0.00 | 79 | 1017.8 |
| 20260510114916 | 41 | 207 | 0.0 | 0.0 | 0.00 | 0.00 | 0.00 | 78 | 1017.7 |
| 20260510114413 | 41 | 207 | 0.0 | 0.0 | 0.00 | 0.00 | 0.00 | 75 | 1017.5 |
| 20260510113908 | 41 | 207 | 0.0 | 0.0 | 0.00 | 0.00 | 0.00 | 76 | 1017.6 |
| 20260510113404 | 41 | 207 | 0.0 | 0.0 | 0.00 | 0.00 | 0.00 | 74 | 1017.7 |
| 20260510112901 | 41 | 206 | 0.0 | 0.0 | 0.00 | 0.00 | 0.00 | 74 | 1017.7 |
| 20260510112359 | 41 | 206 | 0.0 | 0.0 | 0.00 | 0.00 | 0.00 | 74 | 1017.6 |
| 20260510111854 | 40 | 211 | 0.0 | 0.0 | 0.00 | 0.00 | 0.00 | 74 | 1017.4 |
| 20260510111351 | 40 | 217 | 0.0 | 0.0 | 0.00 | 0.00 | 0.00 | 75 | 1017.3 |
| 20260510110847 | 40 | 218 | 0.0 | 0.0 | 0.00 | 0.00 | 0.00 | 76 | 1017.3 |
| 20260510110343 | 39 | 216 | 0.0 | 0.0 | 0.00 | 0.00 | 0.00 | 79 | 1017.2 |
| 20260510105839 | 38 | 202 | 0.0 | 0.0 | 0.00 | 0.00 | 0.00 | 81 | 1017.2 |
| 20260510105339 | 38 | 189 | 0.0 | 0.0 | 0.00 | 0.00 | 0.00 | 81 | 1017.0 |
| 20260510104835 | 37 | 207 | 0.0 | 0.0 | 0.00 | 0.00 | 0.00 | 82 | 1016.8 |
| 20260510104332 | 37 | 216 | 0.0 | 0.0 | 0.00 | 0.00 | 0.00 | 83 | 1016.7 |
| 20260510103829 | 37 | 216 | 0.0 | 0.0 | 0.00 | 0.00 | 0.00 | 82 | 1016.6 |
| 20260510103326 | 38 | 214 | 0.0 | 0.0 | 0.00 | 0.00 | 0.00 | 80 | 1016.7 |
| 20260510102821 | 38 | 214 | 0.0 | 0.0 | 0.00 | 0.00 | 0.00 | 80 | 1016.4 |
| 20260510102317 | 38 | 214 | 0.0 | 0.0 | 0.00 | 0.00 | 0.00 | 80 | 1016.4 |
| 20260510101815 | 38 | 215 | 0.0 | 0.0 | 0.00 | 0.00 | 0.00 | 80 | 1016.4 |
| 20260510101313 | 38 | 212 | 0.0 | 0.0 | 0.00 | 0.00 | 0.00 | 79 | 1016.1 |
| 20260510100808 | 38 | 208 | 0.0 | 0.0 | 0.00 | 0.00 | 0.00 | 80 | 1016.1 |
| 20260510100307 | 38 | 207 | 0.0 | 0.0 | 0.00 | 0.00 | 0.00 | 78 | 1016.0 |
| 20260510095802 | 38 | 207 | 0.0 | 0.0 | 0.00 | 0.00 | 0.00 | 80 | 1016.1 |
| 20260510095257 | 37 | 207 | 0.0 | 0.0 | 0.00 | 0.00 | 0.00 | 82 | 1016.0 |
| 20260510094756 | 37 | 211 | 0.0 | 0.0 | 0.00 | 0.00 | 0.00 | 82 | 1016.1 |
| 20260510094252 | 36 | 215 | 0.0 | 0.0 | 0.00 | 0.00 | 0.00 | 82 | 1016.1 |
| 20260510093748 | 36 | 215 | 0.0 | 0.0 | 0.00 | 0.00 | 0.00 | 82 | 1015.8 |
| 20260510093245 | 36 | 216 | 0.0 | 0.0 | 0.00 | 0.00 | 0.00 | 82 | 1015.9 |
| 20260510092741 | 36 | 215 | 0.0 | 0.0 | 0.00 | 0.00 | 0.00 | 81 | 1015.9 |
| 20260510092237 | 36 | 215 | 0.0 | 0.0 | 0.00 | 0.00 | 0.00 | 80 | 1015.8 |
| 20260510091733 | 37 | 218 | 0.0 | 0.0 | 0.00 | 0.00 | 0.00 | 79 | 1015.7 |
| 20260510091230 | 37 | 207 | 0.0 | 0.0 | 0.00 | 0.00 | 0.00 | 78 | 1015.6 |
| 20260510090726 | 37 | 206 | 0.0 | 0.0 | 0.00 | 0.00 | 0.00 | 77 | 1015.6 |
| 20260510090224 | 37 | 204 | 0.0 | 0.0 | 0.00 | 0.00 | 0.00 | 78 | 1015.5 |
| 20260510085719 | 37 | 207 | 0.0 | 0.0 | 0.00 | 0.00 | 0.00 | 78 | 1015.4 |
| 20260510085214 | 37 | 207 | 0.0 | 0.0 | 0.00 | 0.00 | 0.00 | 78 | 1015.2 |
| 20260510084710 | 37 | 206 | 0.0 | 0.0 | 0.00 | 0.00 | 0.00 | 78 | 1015.2 |
| 20260510084207 | 37 | 209 | 0.0 | 0.0 | 0.00 | 0.00 | 0.00 | 80 | 1015.2 |
| 20260510083704 | 37 | 209 | 0.0 | 0.0 | 0.00 | 0.00 | 0.00 | 79 | 1015.3 |
| 20260510083201 | 37 | 209 | 0.0 | 0.0 | 0.00 | 0.00 | 0.00 | 79 | 1015.3 |
| 20260510082656 | 37 | 209 | 0.0 | 0.0 | 0.00 | 0.00 | 0.00 | 79 | 1015.1 |
| 20260510082152 | 38 | 209 | 0.0 | 0.0 | 0.00 | 0.00 | 0.00 | 79 | 1015.0 |
| 20260510081647 | 38 | 210 | 0.0 | 0.0 | 0.00 | 0.00 | 0.00 | 78 | 1015.1 |
| 20260510081143 | 38 | 211 | 0.0 | 0.0 | 0.00 | 0.00 | 0.00 | 78 | 1014.7 |
| 20260510080643 | 38 | 232 | 0.0 | 0.0 | 0.00 | 0.00 | 0.00 | 76 | 1014.9 |
| 20260510080140 | 38 | 233 | 1.0 | 1.0 | 0.00 | 0.00 | 0.00 | 77 | 1014.7 |
| 20260510075637 | 38 | 206 | 1.0 | 1.0 | 0.00 | 0.00 | 0.00 | 77 | 1014.6 |
| 20260510075134 | 38 | 205 | 0.0 | 0.0 | 0.00 | 0.00 | 0.00 | 79 | 1014.5 |
| 20260510074631 | 37 | 207 | 0.0 | 0.0 | 0.00 | 0.00 | 0.00 | 78 | 1014.7 |
| 20260510074126 | 38 | 207 | 0.0 | 0.0 | 0.00 | 0.00 | 0.00 | 78 | 1014.6 |
| 20260510073623 | 37 | 207 | 0.0 | 0.0 | 0.00 | 0.00 | 0.00 | 76 | 1014.6 |
| 20260510073120 | 38 | 233 | 0.0 | 1.0 | 0.00 | 0.00 | 0.00 | 75 | 1014.6 |
| 20260510072616 | 39 | 194 | 1.0 | 1.0 | 0.00 | 0.00 | 0.00 | 73 | 1014.6 |
| 20260510072113 | 39 | 206 | 0.0 | 0.0 | 0.00 | 0.00 | 0.00 | 75 | 1014.7 |
| 20260510071609 | 39 | 200 | 0.0 | 0.0 | 0.00 | 0.00 | 0.00 | 76 | 1014.6 |
| 20260510071107 | 39 | 200 | 0.0 | 0.0 | 0.00 | 0.00 | 0.00 | 76 | 1014.8 |
| 20260510070603 | 39 | 200 | 0.0 | 0.0 | 0.00 | 0.00 | 0.00 | 74 | 1014.6 |
| 20260510065557 | 39 | 200 | 0.0 | 0.0 | 0.00 | 0.00 | 0.00 | 74 | 1014.5 |
| 20260510065053 | 40 | 200 | 0.0 | 0.0 | 0.00 | 0.00 | 0.00 | 73 | 1014.6 |
| 20260510064549 | 40 | 200 | 0.0 | 0.0 | 0.00 | 0.00 | 0.00 | 74 | 1014.7 |
| 20260510064046 | 40 | 206 | 0.0 | 0.0 | 0.00 | 0.00 | 0.00 | 74 | 1014.5 |
| 20260510063543 | 40 | 207 | 0.0 | 0.0 | 0.00 | 0.00 | 0.00 | 75 | 1014.5 |
| 20260510063040 | 40 | 207 | 0.0 | 0.0 | 0.00 | 0.00 | 0.00 | 73 | 1014.5 |
| 20260510062536 | 41 | 207 | 0.0 | 0.0 | 0.00 | 0.00 | 0.00 | 72 | 1014.5 |
| 20260510062031 | 41 | 207 | 0.0 | 0.0 | 0.00 | 0.00 | 0.00 | 70 | 1014.5 |
| 20260510061528 | 41 | 206 | 0.0 | 0.0 | 0.00 | 0.00 | 0.00 | 69 | 1014.5 |
| 20260510061025 | 42 | 206 | 0.0 | 0.0 | 0.00 | 0.00 | 0.00 | 68 | 1014.5 |
| 20260510060521 | 42 | 206 | 0.0 | 0.0 | 0.00 | 0.00 | 0.00 | 67 | 1014.4 |
| 20260510060017 | 42 | 206 | 0.0 | 0.0 | 0.00 | 0.00 | 0.00 | 68 | 1014.5 |
| 20260510055514 | 42 | 206 | 0.0 | 0.0 | 0.00 | 0.00 | 0.00 | 66 | 1014.4 |
| 20260510055012 | 42 | 206 | 0.0 | 0.0 | 0.00 | 0.00 | 0.00 | 65 | 1014.5 |
| 20260510054508 | 42 | 207 | 0.0 | 0.0 | 0.00 | 0.00 | 0.00 | 65 | 1014.4 |
| 20260510054003 | 42 | 206 | 0.0 | 0.0 | 0.00 | 0.00 | 0.00 | 66 | 1014.3 |
| 20260510053457 | 43 | 206 | 0.0 | 0.0 | 0.00 | 0.00 | 0.00 | 67 | 1014.2 |
| 20260510052954 | 43 | 207 | 0.0 | 0.0 | 0.00 | 0.00 | 0.00 | 64 | 1014.1 |
| 20260510052450 | 43 | 207 | 0.0 | 0.0 | 0.00 | 0.00 | 0.00 | 66 | 1014.2 |
| 20260510051946 | 43 | 207 | 0.0 | 0.0 | 0.00 | 0.00 | 0.00 | 64 | 1014.1 |
| 20260510051442 | 43 | 207 | 0.0 | 0.0 | 0.00 | 0.00 | 0.00 | 62 | 1014.2 |
| 20260510050939 | 43 | 207 | 0.0 | 0.0 | 0.00 | 0.00 | 0.00 | 64 | 1014.1 |
| 20260510050436 | 43 | 206 | 0.0 | 0.0 | 0.00 | 0.00 | 0.00 | 61 | 1014.1 |
| 20260510045933 | 43 | 207 | 0.0 | 0.0 | 0.00 | 0.00 | 0.00 | 64 | 1014.0 |
| 20260510045430 | 43 | 206 | 0.0 | 0.0 | 0.00 | 0.00 | 0.00 | 62 | 1014.1 |
| 20260510044927 | 43 | 209 | 0.0 | 0.0 | 0.00 | 0.00 | 0.00 | 60 | 1013.9 |
| 20260510044424 | 43 | 209 | 0.0 | 0.0 | 0.00 | 0.00 | 0.00 | 60 | 1014.0 |
| 20260510043921 | 42 | 209 | 0.0 | 0.0 | 0.00 | 0.00 | 0.00 | 61 | 1014.0 |
| 20260510043417 | 43 | 209 | 0.0 | 0.0 | 0.00 | 0.00 | 0.00 | 60 | 1014.0 |
| 20260510042915 | 44 | 208 | 0.0 | 0.0 | 0.00 | 0.00 | 0.00 | 59 | 1013.8 |
| 20260510042411 | 45 | 207 | 0.0 | 0.0 | 0.00 | 0.00 | 0.00 | 56 | 1013.9 |
| 20260510041906 | 46 | 205 | 0.0 | 0.0 | 0.00 | 0.00 | 0.00 | 50 | 1013.7 |
| 20260510041404 | 46 | 205 | 0.0 | 0.0 | 0.00 | 0.00 | 0.00 | 51 | 1013.9 |
| 20260510040901 | 47 | 210 | 0.0 | 0.0 | 0.00 | 0.00 | 0.00 | 51 | 1013.9 |
| 20260510040358 | 48 | 221 | 0.0 | 0.0 | 0.00 | 0.00 | 0.00 | 50 | 1014.0 |
| 20260510035854 | 49 | 233 | 0.0 | 0.0 | 0.00 | 0.00 | 0.00 | 45 | 1013.9 |
| 20260510035350 | 49 | 233 | 0.0 | 0.0 | 0.00 | 0.00 | 0.00 | 44 | 1013.9 |
| 20260510034845 | 49 | 238 | 0.0 | 0.0 | 0.00 | 0.00 | 0.00 | 44 | 1013.9 |
| 20260510034343 | 49 | 256 | 0.0 | 1.0 | 0.00 | 0.00 | 0.00 | 44 | 1013.9 |
| 20260510033839 | 49 | 323 | 2.0 | 2.0 | 0.00 | 0.00 | 0.00 | 43 | 1013.8 |
| 20260510033336 | 50 | 0 | 2.0 | 2.0 | 0.00 | 0.00 | 0.00 | 43 | 1013.7 |
| 20260510032833 | 50 | 7 | 2.0 | 3.0 | 0.00 | 0.00 | 0.00 | 42 | 1013.5 |
| 20260510032330 | 50 | 242 | 1.0 | 2.0 | 0.00 | 0.00 | 0.00 | 42 | 1013.5 |
| 20260510031825 | 50 | 237 | 1.0 | 1.0 | 0.00 | 0.00 | 0.00 | 42 | 1013.6 |
| 20260510031321 | 50 | 245 | 1.0 | 1.0 | 0.00 | 0.00 | 0.00 | 41 | 1013.2 |
| 20260510030815 | 51 | 236 | 1.0 | 1.0 | 0.00 | 0.00 | 0.00 | 41 | 1013.4 |
| 20260510030312 | 51 | 246 | 1.0 | 1.0 | 0.00 | 0.00 | 0.00 | 40 | 1013.4 |
| 20260510025809 | 51 | 274 | 1.0 | 1.0 | 0.00 | 0.00 | 0.00 | 40 | 1013.1 |
| 20260510025306 | 51 | 295 | 2.0 | 2.0 | 0.00 | 0.00 | 0.00 | 39 | 1013.1 |
| 20260510024803 | 52 | 253 | 1.0 | 2.0 | 0.00 | 0.00 | 0.00 | 39 | 1012.9 |
| 20260510024300 | 52 | 292 | 3.0 | 3.0 | 0.00 | 0.00 | 0.00 | 38 | 1012.8 |
| 20260510023756 | 52 | 301 | 3.0 | 3.0 | 0.00 | 0.00 | 0.00 | 37 | 1012.7 |
| 20260510023253 | 52 | 258 | 2.0 | 2.0 | 0.00 | 0.00 | 0.00 | 37 | 1012.4 |
| 20260510022750 | 53 | 246 | 1.0 | 2.0 | 0.00 | 0.00 | 0.00 | 37 | 1012.6 |
| 20260510022249 | 53 | 305 | 2.0 | 2.0 | 0.00 | 0.00 | 0.00 | 36 | 1012.3 |
| 20260510021749 | 53 | 334 | 3.0 | 3.0 | 0.00 | 0.00 | 0.00 | 36 | 1012.2 |
| 20260510021247 | 53 | 288 | 3.0 | 3.0 | 0.00 | 0.00 | 0.00 | 36 | 1012.0 |
| 20260510020742 | 53 | 292 | 3.0 | 3.0 | 0.00 | 0.00 | 0.00 | 35 | 1012.0 |
| 20260510020237 | 53 | 325 | 4.0 | 6.0 | 0.00 | 0.00 | 0.00 | 36 | 1011.9 |
| 20260510015733 | 53 | 331 | 3.0 | 3.0 | 0.00 | 0.00 | 0.00 | 36 | 1011.6 |
| 20260510015230 | 53 | 236 | 3.0 | 5.0 | 0.00 | 0.00 | 0.00 | 37 | 1011.4 |
| 20260510014724 | 53 | 253 | 2.0 | 2.0 | 0.00 | 0.00 | 0.00 | 37 | 1011.5 |
| 20260510014222 | 53 | 324 | 5.0 | 5.0 | 0.00 | 0.00 | 0.00 | 37 | 1011.5 |
| 20260510013718 | 54 | 256 | 1.0 | 2.0 | 0.00 | 0.00 | 0.00 | 37 | 1011.1 |
| 20260510013213 | 54 | 313 | 2.0 | 2.0 | 0.00 | 0.00 | 0.00 | 36 | 1011.3 |
| 20260510012708 | 54 | 243 | 1.0 | 1.0 | 0.00 | 0.00 | 0.00 | 37 | 1011.0 |
| 20260510012203 | 55 | 316 | 3.0 | 3.0 | 0.00 | 0.00 | 0.00 | 36 | 1010.9 |
| 20260510011658 | 55 | 359 | 4.0 | 5.0 | 0.00 | 0.00 | 0.00 | 35 | 1011.1 |
| 20260510011154 | 55 | 334 | 3.0 | 3.0 | 0.00 | 0.00 | 0.00 | 35 | 1011.0 |
| 20260510010650 | 55 | 326 | 3.0 | 3.0 | 0.00 | 0.00 | 0.00 | 34 | 1010.8 |
| 20260510010148 | 55 | 310 | 4.0 | 5.0 | 0.00 | 0.00 | 0.00 | 35 | 1010.7 |
| 20260510005644 | 56 | 316 | 5.0 | 7.0 | 0.00 | 0.00 | 0.00 | 35 | 1010.7 |
| 20260510005141 | 56 | 284 | 5.0 | 6.0 | 0.00 | 0.00 | 0.00 | 34 | 1010.7 |
| 20260510004639 | 56 | 311 | 4.0 | 5.0 | 0.00 | 0.00 | 0.00 | 33 | 1010.5 |
| 20260510004137 | 56 | 268 | 4.0 | 5.0 | 0.00 | 0.00 | 0.00 | 33 | 1010.5 |
| 20260510003634 | 56 | 350 | 6.0 | 7.0 | 0.00 | 0.00 | 0.00 | 32 | 1010.4 |
| 20260510003129 | 57 | 344 | 8.0 | 9.0 | 0.00 | 0.00 | 0.00 | 32 | 1010.3 |
| 20260510002629 | 57 | 310 | 5.0 | 6.0 | 0.00 | 0.00 | 0.00 | 33 | 1010.5 |
| 20260510002127 | 57 | 35 | 8.0 | 11.0 | 0.00 | 0.00 | 0.00 | 33 | 1010.3 |
| 20260510001623 | 57 | 310 | 3.0 | 3.0 | 0.00 | 0.00 | 0.00 | 33 | 1010.3 |
| 20260510001122 | 57 | 40 | 8.0 | 11.0 | 0.00 | 0.00 | 0.00 | 33 | 1010.2 |
| 20260510000622 | 57 | 325 | 6.0 | 7.0 | 0.00 | 0.00 | 0.00 | 33 | 1009.8 |
| 20260510000120 | 57 | 285 | 8.0 | 9.0 | 0.00 | 0.00 | 0.00 | 33 | 1010.0 |
| 20260509235616 | 57 | 313 | 9.0 | 11.0 | 0.00 | 0.00 | 0.00 | 32 | 1010.0 |
| 20260509235113 | 58 | 320 | 6.0 | 7.0 | 0.00 | 0.00 | 0.00 | 33 | 1009.9 |
| 20260509234608 | 58 | 311 | 11.0 | 13.0 | 0.00 | 0.00 | 0.00 | 32 | 1009.8 |
| 20260509234107 | 58 | 334 | 5.0 | 6.0 | 0.00 | 0.00 | 0.00 | 33 | 1009.6 |
| 20260509233604 | 58 | 354 | 3.0 | 5.0 | 0.00 | 0.00 | 0.00 | 32 | 1009.8 |
| 20260509233101 | 58 | 340 | 5.0 | 6.0 | 0.00 | 0.00 | 0.00 | 32 | 1009.9 |
| 20260509232557 | 58 | 45 | 4.0 | 6.0 | 0.00 | 0.00 | 0.00 | 33 | 1009.5 |
| 20260509232055 | 58 | 307 | 4.0 | 5.0 | 0.00 | 0.00 | 0.00 | 33 | 1009.4 |
| 20260509231551 | 57 | 304 | 6.0 | 7.0 | 0.00 | 0.00 | 0.00 | 32 | 1009.5 |
| 20260509231049 | 58 | 328 | 9.0 | 11.0 | 0.00 | 0.00 | 0.00 | 31 | 1009.3 |
| 20260509230545 | 58 | 1 | 5.0 | 9.0 | 0.00 | 0.00 | 0.00 | 33 | 1009.4 |
| 20260509230043 | 58 | 20 | 6.0 | 8.0 | 0.00 | 0.00 | 0.00 | 33 | 1009.4 |
| 20260509225538 | 58 | 35 | 7.0 | 9.0 | 0.00 | 0.00 | 0.00 | 33 | 1009.3 |
| 20260509225033 | 58 | 331 | 4.0 | 5.0 | 0.00 | 0.00 | 0.00 | 32 | 1009.1 |
| 20260509224529 | 59 | 357 | 7.0 | 9.0 | 0.00 | 0.00 | 0.00 | 31 | 1008.9 |
| 20260509224026 | 58 | 320 | 5.0 | 6.0 | 0.00 | 0.00 | 0.00 | 32 | 1009.0 |
| 20260509223523 | 58 | 354 | 7.0 | 10.0 | 0.00 | 0.00 | 0.00 | 32 | 1009.0 |
| 20260509223021 | 58 | 10 | 7.0 | 9.0 | 0.00 | 0.00 | 0.00 | 33 | 1008.7 |
| 20260509222517 | 58 | 17 | 5.0 | 6.0 | 0.00 | 0.00 | 0.00 | 32 | 1009.0 |
| 20260509222012 | 58 | 342 | 5.0 | 6.0 | 0.00 | 0.00 | 0.00 | 32 | 1009.0 |
| 20260509221509 | 58 | 0 | 5.0 | 9.0 | 0.00 | 0.00 | 0.00 | 33 | 1008.9 |
| 20260509221005 | 58 | 301 | 5.0 | 6.0 | 0.00 | 0.00 | 0.00 | 32 | 1008.8 |
| 20260509220501 | 58 | 316 | 5.0 | 6.0 | 0.00 | 0.00 | 0.00 | 32 | 1008.9 |
| 20260509215957 | 58 | 18 | 3.0 | 3.0 | 0.00 | 0.00 | 0.00 | 31 | 1009.0 |
| 20260509215452 | 58 | 35 | 9.0 | 11.0 | 0.00 | 0.00 | 0.00 | 31 | 1008.7 |
| 20260509214950 | 58 | 347 | 12.0 | 15.0 | 0.00 | 0.00 | 0.00 | 31 | 1008.8 |
| 20260509214447 | 58 | 34 | 8.0 | 11.0 | 0.00 | 0.00 | 0.00 | 33 | 1009.1 |
| 20260509213944 | 58 | 358 | 5.0 | 6.0 | 0.00 | 0.00 | 0.00 | 31 | 1008.8 |
| 20260509213440 | 58 | 359 | 7.0 | 9.0 | 0.00 | 0.00 | 0.00 | 31 | 1008.7 |
| 20260509212937 | 58 | 27 | 9.0 | 11.0 | 0.00 | 0.00 | 0.00 | 34 | 1008.9 |
| 20260509212434 | 58 | 20 | 9.0 | 11.0 | 0.00 | 0.00 | 0.00 | 31 | 1008.8 |
| 20260509211930 | 58 | 19 | 13.0 | 16.0 | 0.00 | 0.00 | 0.00 | 31 | 1008.7 |
| 20260509211426 | 58 | 19 | 6.0 | 8.0 | 0.00 | 0.00 | 0.00 | 32 | 1008.7 |
| 20260509210923 | 58 | 11 | 11.0 | 18.0 | 0.00 | 0.00 | 0.00 | 32 | 1008.8 |
| 20260509210420 | 59 | 320 | 5.0 | 6.0 | 0.00 | 0.00 | 0.00 | 32 | 1008.5 |
| 20260509205915 | 59 | 333 | 4.0 | 5.0 | 0.00 | 0.00 | 0.00 | 32 | 1008.6 |
| 20260509205415 | 58 | 337 | 5.0 | 6.0 | 0.00 | 0.00 | 0.00 | 33 | 1008.6 |
| 20260509204912 | 58 | 324 | 6.0 | 7.0 | 0.00 | 0.00 | 0.00 | 33 | 1008.8 |
| 20260509204408 | 58 | 13 | 17.0 | 21.0 | 0.00 | 0.00 | 0.00 | 32 | 1008.6 |
| 20260509203904 | 58 | 334 | 5.0 | 6.0 | 0.00 | 0.00 | 0.00 | 32 | 1008.6 |
| 20260509203400 | 57 | 324 | 7.0 | 8.0 | 0.00 | 0.00 | 0.00 | 34 | 1008.5 |
| 20260509202858 | 57 | 338 | 8.0 | 9.0 | 0.00 | 0.00 | 0.00 | 34 | 1008.7 |
| 20260509202353 | 57 | 19 | 7.0 | 9.0 | 0.00 | 0.00 | 0.00 | 35 | 1008.5 |
| 20260509201849 | 58 | 49 | 8.0 | 13.0 | 0.00 | 0.00 | 0.00 | 35 | 1008.6 |
| 20260509201345 | 58 | 349 | 4.0 | 6.0 | 0.00 | 0.00 | 0.00 | 33 | 1008.4 |
| 20260509200842 | 58 | 331 | 8.0 | 8.0 | 0.00 | 0.00 | 0.00 | 33 | 1008.4 |
| 20260509200336 | 58 | 304 | 7.0 | 7.0 | 0.00 | 0.00 | 0.00 | 34 | 1008.5 |
| 20260509195834 | 57 | 311 | 4.0 | 5.0 | 0.00 | 0.00 | 0.00 | 34 | 1008.2 |
| 20260509195334 | 57 | 289 | 8.0 | 9.0 | 0.00 | 0.00 | 0.00 | 35 | 1008.3 |
| 20260509194833 | 58 | 42 | 10.0 | 13.0 | 0.00 | 0.00 | 0.00 | 34 | 1008.2 |
| 20260509194330 | 57 | 328 | 4.0 | 5.0 | 0.00 | 0.00 | 0.00 | 33 | 1008.3 |
| 20260509193826 | 57 | 311 | 7.0 | 10.0 | 0.00 | 0.00 | 0.00 | 32 | 1008.4 |
| 20260509193321 | 57 | 8 | 12.0 | 16.0 | 0.00 | 0.00 | 0.00 | 33 | 1008.2 |
| 20260509192817 | 57 | 350 | 10.0 | 11.0 | 0.00 | 0.00 | 0.00 | 33 | 1008.2 |
| 20260509192314 | 57 | 2 | 7.0 | 13.0 | 0.00 | 0.00 | 0.00 | 34 | 1008.2 |
| 20260509191809 | 57 | 323 | 9.0 | 13.0 | 0.00 | 0.00 | 0.00 | 33 | 1008.0 |
| 20260509191305 | 57 | 307 | 9.0 | 10.0 | 0.00 | 0.00 | 0.00 | 34 | 1007.9 |
| 20260509190801 | 58 | 330 | 7.0 | 10.0 | 0.00 | 0.00 | 0.00 | 35 | 1008.0 |
| 20260509190258 | 57 | 9 | 5.0 | 6.0 | 0.00 | 0.00 | 0.00 | 38 | 1008.1 |
| 20260509185755 | 57 | 35 | 14.0 | 17.0 | 0.00 | 0.00 | 0.00 | 35 | 1008.0 |
| 20260509185251 | 57 | 2 | 10.0 | 14.0 | 0.00 | 0.00 | 0.00 | 35 | 1007.9 |
| 20260509184749 | 56 | 49 | 6.0 | 8.0 | 0.00 | 0.00 | 0.00 | 39 | 1007.9 |
| 20260509184247 | 56 | 40 | 6.0 | 7.0 | 0.00 | 0.00 | 0.00 | 38 | 1008.0 |
| 20260509183743 | 57 | 13 | 10.0 | 14.0 | 0.00 | 0.00 | 0.00 | 36 | 1007.9 |
| 20260509183238 | 56 | 320 | 6.0 | 8.0 | 0.00 | 0.00 | 0.00 | 37 | 1008.0 |
| 20260509182734 | 56 | 59 | 14.0 | 31.0 | 0.00 | 0.00 | 0.00 | 40 | 1007.8 |
| 20260509182231 | 56 | 63 | 7.0 | 11.0 | 0.00 | 0.00 | 0.00 | 38 | 1007.7 |
| 20260509181729 | 56 | 6 | 12.0 | 15.0 | 0.00 | 0.00 | 0.00 | 36 | 1007.9 |
| 20260509181226 | 55 | 13 | 8.0 | 9.0 | 0.00 | 0.00 | 0.00 | 38 | 1007.8 |
| 20260509180723 | 56 | 323 | 9.0 | 11.0 | 0.00 | 0.00 | 0.00 | 37 | 1007.7 |
| 20260509180219 | 56 | 318 | 7.0 | 8.0 | 0.00 | 0.00 | 0.00 | 39 | 1007.7 |
| 20260509175716 | 56 | 313 | 6.0 | 7.0 | 0.00 | 0.00 | 0.00 | 39 | 1007.7 |
| 20260509175212 | 55 | 297 | 8.0 | 9.0 | 0.00 | 0.00 | 0.00 | 41 | 1007.7 |
| 20260509174708 | 55 | 319 | 5.0 | 7.0 | 0.00 | 0.00 | 0.00 | 41 | 1007.7 |
| 20260509174203 | 55 | 299 | 5.0 | 6.0 | 0.00 | 0.00 | 0.00 | 40 | 1007.7 |
| 20260509173700 | 55 | 354 | 5.0 | 7.0 | 0.00 | 0.00 | 0.00 | 42 | 1008.0 |
| 20260509173155 | 55 | 44 | 7.0 | 8.0 | 0.00 | 0.00 | 0.00 | 43 | 1007.7 |
| 20260509172652 | 55 | 324 | 6.0 | 8.0 | 0.00 | 0.00 | 0.00 | 42 | 1007.8 |
| 20260509172148 | 55 | 344 | 6.0 | 8.0 | 0.00 | 0.00 | 0.00 | 42 | 1007.6 |
| 20260509171643 | 55 | 9 | 5.0 | 7.0 | 0.00 | 0.00 | 0.00 | 43 | 1007.5 |
| 20260509171140 | 54 | 344 | 7.0 | 9.0 | 0.00 | 0.00 | 0.00 | 45 | 1007.6 |